User: anonymous   Login
Location: Unspecified
(0.0000°N, 0.0000°E)
Time: 16:45:12
(UTC+00:00)
Language:

OPTUS 1C - Orbit

View from above orbital plane
View from above orbital plane
View from above satellite
View from above satellite

Ground track
Ground track

The orbit data is extracted from the following two-line orbital elements,

1 27831U 03028B   16238.42160041 -.00000173  00000-0  00000+0 0  9993
2 27831   0.0376 226.2242 0004319 296.4213 119.2400  1.00271652 48398
Epoch (UTC): 25 August 2016 10:07:06
Eccentricity: 0.0004319
inclination: 0.0376°
perigee height: 35768 km
apogee height: 35804 km
right ascension of ascending node: 226.2242°
argument of perigee: 296.4213°
revolutions per day: 1.00271652
mean anomaly at epoch: 119.2400°
orbit number at epoch: 4839

The dashed part of the orbit path shows where the satellite is in the earth's shadow,  

DLR